N4LLZ-13 Weather Reports


Display with metric or nautical units.
time (UTC)temp
F
wind
direction
speed
MPH
gust
MPH
rain 1hr
in
rain 24hr
in
rain mn
in
humidity
%
barometer
mb
20260502210455 55 67 0.0 1.0 0.00 1.41 1.45 82 1011.9
20260502205955 55 87 1.0 1.0 0.00 1.41 1.45 81 1012.0
20260502205454 55 111 1.0 2.0 0.00 1.41 1.45 81 1012.0
20260502204953 55 100 1.0 2.0 0.00 1.41 1.45 81 1012.0
20260502204452 55 119 1.0 1.0 0.00 1.41 1.45 80 1012.0
20260502203951 56 90 1.0 2.0 0.00 1.41 1.45 81 1012.0
20260502203451 56 359 0.0 1.0 0.00 1.41 1.45 83 1012.0
20260502202950 56 90 1.0 1.0 0.00 1.41 1.45 81 1012.0
20260502202449 56 57 1.0 1.0 0.00 1.41 1.45 81 1012.0
20260502201948 56 34 1.0 2.0 0.00 1.41 1.45 82 1011.9
20260502201447 55 50 1.0 1.0 0.00 1.41 1.45 83 1011.9
20260502200946 55 75 1.0 1.0 0.00 1.41 1.45 82 1012.0
20260502200445 55 134 1.0 1.0 0.00 1.41 1.45 82 1012.0
20260502195944 55 79 1.0 2.0 0.00 1.41 1.45 83 1012.0
20260502195444 55 102 1.0 2.0 0.00 1.41 1.45 83 1012.0
20260502194943 55 119 1.0 3.0 0.00 1.43 1.45 83 1012.2
20260502194442 55 60 0.0 2.0 0.00 1.43 1.45 85 1012.3
20260502193941 55 19 0.0 1.0 0.00 1.43 1.45 84 1012.4
20260502193441 55 124 1.0 2.0 0.00 1.43 1.45 84 1012.5
20260502192940 55 95 1.0 2.0 0.00 1.43 1.45 85 1012.5
20260502192439 55 134 1.0 2.0 0.00 1.43 1.45 84 1012.5
20260502191938 55 98 2.0 3.0 0.00 1.43 1.45 83 1012.5
20260502191437 55 56 1.0 2.0 0.00 1.43 1.45 84 1012.5
20260502190936 54 78 1.0 2.0 0.00 1.43 1.45 84 1012.6
20260502190436 54 0 1.0 1.0 0.00 1.43 1.45 84 1012.6
20260502185935 54 31 1.0 1.0 0.09 1.43 1.45 86 1012.7
20260502185436 54 67 1.0 2.0 0.11 1.43 1.45 86 1012.7
20260502184933 54 47 1.0 1.0 0.15 1.43 1.45 87 1012.7
20260502184432 54 61 1.0 2.0 0.27 1.43 1.45 87 1012.7
20260502183931 54 110 1.0 2.0 0.29 1.43 1.45 88 1012.7
20260502183431 53 62 1.0 2.0 0.82 1.43 1.45 89 1012.8
20260502182930 53 77 1.0 3.0 0.86 1.43 1.45 88 1012.9
20260502182429 53 57 1.0 2.0 1.49 1.48 1.50 89 1013.0
20260502181929 53 86 1.0 3.0 0.00 1.48 1.50 88 1013.3
20260502181427 53 72 1.0 2.0 0.00 1.48 1.50 89 1013.2
20260502180927 53 39 1.0 1.0 0.00 1.47 1.49 91 1013.1
20260502180426 53 81 1.0 2.0 0.00 1.42 1.44 90 1013.1
20260502170416 52 29 1.0 1.0 7.11 1.45 1.47 93 1013.1
20260502163912 52 81 1.0 1.0 3.37 9.68 9.87 93 1013.8
20260502163411 52 48 1.0 1.0 3.89 9.53 9.71 93 1014.0
20260502162910 52 54 0.0 0.0 3.80 9.39 9.57 94 1014.0
20260502162409 52 71 0.0 1.0 5.27 1.08 1.10 94 1014.0
20260502161908 52 68 0.0 1.0 4.88 1.06 1.08 93 1014.0
20260502161408 52 19 1.0 1.0 4.68 1.03 1.05 93 1014.0
20260502160907 52 81 1.0 1.0 1.80 7.41 7.59 92 1014.0
20260502160406 52 58 1.0 1.0 2.00 7.11 7.30 92 1014.1
20260502151859 52 92 1.0 3.0 0.98 5.71 5.89 92 1013.9
20260502151358 52 97 1.0 1.0 1.06 5.61 5.79 92 1013.9
20260502150858 52 65 1.0 1.0 0.73 5.11 5.30 92 1014.0
20260502150356 52 22 1.0 1.0 0.81 4.81 4.99 92 1014.2
20260502130337 52 356 1.0 1.0 1.45 2.90 2.98 92 1013.0
20260502123332 52 345 1.0 1.0 0.59 1.76 1.76 91 1012.3
20260502122831 52 292 1.0 1.0 0.56 1.67 1.67 91 1012.4
20260502122330 52 10 0.0 0.0 0.93 1.94 1.94 91 1012.4
20260502121830 52 1 1.0 1.0 1.51 1.88 1.88 91 1012.4
20260502121329 52 303 0.0 1.0 1.46 1.80 1.80 90 1012.5
20260502120828 52 330 1.0 1.0 1.23 1.53 1.53 89 1012.5
20260502120327 52 13 0.0 1.0 1.82 1.86 1.86 89 1012.6
20260502115826 52 324 0.0 1.0 1.76 1.76 1.76 89 1012.6
20260502115325 52 352 0.0 1.0 1.53 1.53 1.53 88 1012.7
20260502114825 53 37 0.0 1.0 1.45 1.45 1.45 88 1012.7
20260502114324 53 348 0.0 1.0 1.38 1.38 1.38 87 1012.7
20260502113823 53 129 0.0 0.0 1.18 1.18 1.18 86 1012.7
20260502113322 53 0 0.0 1.0 1.11 1.11 1.11 85 1012.8
20260502112821 53 347 0.0 0.0 1.01 1.01 1.01 85 1012.8
20260502112320 54 343 1.0 1.0 0.37 0.37 0.37 85 1012.9
20260502111820 54 337 1.0 1.0 0.34 0.34 0.34 84 1012.9
20260502111319 54 337 1.0 1.0 0.29 0.29 0.29 84 1012.9
20260502110818 54 275 0.0 0.0 0.05 0.05 0.05 85 1012.9
20260502110317 54 315 1.0 1.0 0.00 0.00 0.00 85 1012.8
20260502105816 54 291 1.0 1.0 0.00 0.00 0.00 85 1012.8
20260502105316 54 290 1.0 1.0 0.00 0.00 0.00 85 1012.8
20260502104815 54 305 1.0 1.0 0.00 0.00 0.00 85 1012.8
20260502104314 54 286 0.0 1.0 0.00 0.00 0.00 86 1012.8
20260502103813 54 263 0.0 1.0 0.00 0.00 0.00 86 1012.9
20260502103312 54 302 1.0 1.0 0.00 0.00 0.00 86 1012.9
20260502102811 54 324 1.0 1.0 0.00 0.00 0.00 86 1012.9
20260502102311 54 346 1.0 1.0 0.00 0.00 0.00 87 1012.8
20260502101810 54 0 0.0 0.0 0.00 0.00 0.00 88 1012.9
20260502101309 54 316 0.0 1.0 0.00 0.00 0.00 88 1012.8
20260502100808 54 298 1.0 1.0 0.00 0.00 0.00 87 1012.8
20260502100307 54 326 1.0 1.0 0.00 0.00 0.00 87 1012.7
20260502091259 53 272 1.0 1.0 0.00 0.00 0.00 90 1012.7
20260502090758 53 238 0.0 1.0 0.00 0.00 0.00 90 1012.6
20260502090257 53 327 1.0 1.0 0.00 0.00 0.00 90 1012.6
20260502071239 52 335 1.0 1.0 0.00 0.00 0.00 92 1011.9
20260502070738 52 0 0.0 0.0 0.00 0.00 0.00 92 1011.9
20260502070238 52 0 0.0 0.0 0.00 0.00 0.00 92 1012.0
20260502065737 52 0 0.0 0.0 0.00 0.00 0.00 92 1012.0
20260502065236 52 0 0.0 0.0 0.00 0.00 0.00 92 1012.1
20260502064735 52 0 0.0 0.0 0.00 0.00 0.00 92 1012.1
20260502064235 52 255 0.0 0.0 0.00 0.00 0.00 92 1012.2
20260502063734 52 238 0.0 0.0 0.00 0.00 0.00 92 1012.1
20260502063233 52 0 0.0 0.0 0.00 0.00 0.00 92 1012.3
20260502062732 52 0 0.0 0.0 0.00 0.00 0.00 91 1012.3
20260502062232 52 0 0.0 0.0 0.00 0.00 0.00 91 1012.3
20260502061731 52 315 0.0 0.0 0.00 0.00 0.00 91 1012.3
20260502061231 52 0 0.0 0.0 0.00 0.00 0.00 91 1012.4
20260502060730 52 0 0.0 0.0 0.00 0.00 0.00 91 1012.4
20260502060229 52 100 0.0 0.0 0.00 0.00 0.00 90 1012.3
20260502055728 52 0 0.0 0.0 0.00 0.00 0.00 90 1012.3
20260502055227 52 0 0.0 0.0 0.00 0.00 0.00 90 1012.4
20260502054727 52 0 0.0 0.0 0.00 0.00 0.00 90 1012.5
20260502054226 52 0 0.0 0.0 0.00 0.00 0.00 90 1012.6
20260502053725 52 94 0.0 1.0 0.00 0.00 0.00 90 1012.5
20260502053224 52 0 0.0 0.0 0.00 0.00 0.00 91 1012.6
20260502052723 52 348 0.0 1.0 0.00 0.00 0.00 90 1012.7
20260502052223 52 252 0.0 0.0 0.00 0.00 0.00 90 1012.7
20260502051722 52 212 0.0 1.0 0.00 0.00 0.00 90 1012.8
20260502051221 52 0 0.0 0.0 0.00 0.00 0.00 89 1012.9
20260502050720 52 0 0.0 0.0 0.00 0.00 0.00 89 1012.9
20260502050220 52 0 0.0 0.0 0.00 0.00 0.00 89 1013.0
20260502045719 52 0 0.0 0.0 0.00 0.00 0.00 90 1013.0
20260502045218 52 0 0.0 0.0 0.00 0.00 0.00 89 1013.0
20260502044717 52 0 0.0 0.0 0.00 0.00 0.00 89 1013.1
20260502044216 52 0 0.0 0.0 0.00 0.00 0.00 89 1013.1
20260502043716 52 0 0.0 0.0 0.00 0.00 0.00 89 1013.1
20260502043215 52 0 0.0 0.0 0.00 0.00 0.00 89 1013.1
20260502042714 52 0 0.0 0.0 0.00 0.00 0.00 89 1013.1
20260502042213 52 0 0.0 0.0 0.00 0.00 0.00 88 1013.1
20260502041712 53 0 0.0 0.0 0.00 0.00 0.00 88 1013.0
20260502041212 53 0 0.0 0.0 0.00 0.00 0.00 88 1013.0
20260502040711 53 0 0.0 0.0 0.00 0.00 0.00 88 1013.0
20260502040210 53 0 0.0 0.0 0.00 0.39 0.41 87 1013.1
20260502035709 53 0 0.0 0.0 0.00 0.39 0.41 88 1013.0
20260502035208 52 0 0.0 0.0 0.00 0.39 0.41 88 1013.1
20260502034708 52 0 0.0 0.0 0.00 0.39 0.41 88 1013.1
20260502034207 53 0 0.0 0.0 0.00 0.39 0.41 88 1013.1
20260502033706 53 197 0.0 0.0 0.00 0.39 0.41 88 1013.1
20260502033205 53 0 0.0 0.0 0.00 0.39 0.41 88 1013.3
20260502032704 53 0 0.0 0.0 0.00 0.39 0.41 88 1013.2
20260502032204 53 86 0.0 0.0 0.00 0.39 0.41 88 1013.4
20260502031704 53 0 0.0 0.0 0.00 0.39 0.41 87 1013.4
20260502031203 53 220 0.0 1.0 0.00 0.39 0.41 87 1013.5
20260502030702 53 0 0.0 0.0 0.00 0.39 0.41 88 1013.5
20260502030201 53 0 0.0 0.0 0.00 0.39 0.41 87 1013.6
20260502025700 53 341 0.0 1.0 0.00 0.39 0.41 87 1013.6
20260502025159 53 0 0.0 0.0 0.00 0.39 0.41 86 1013.6
20260502024659 53 0 0.0 0.0 0.00 0.39 0.41 87 1013.7
20260502024158 53 16 0.0 1.0 0.00 0.39 0.41 86 1013.6
20260502023657 53 117 0.0 0.0 0.00 0.39 0.41 87 1013.6
20260502023156 53 0 0.0 0.0 0.00 0.39 0.41 86 1013.8
20260502022656 53 2 0.0 1.0 0.00 0.39 0.41 86 1013.8
20260502022155 53 0 0.0 0.0 0.00 0.39 0.41 86 1013.7
20260502021654 53 0 0.0 0.0 0.00 0.39 0.41 87 1013.7
20260502021153 53 0 0.0 0.0 0.00 0.39 0.41 86 1013.7
20260502020652 53 250 0.0 0.0 0.00 0.39 0.41 87 1013.9
20260502020151 53 0 0.0 0.0 0.00 0.39 0.41 87 1013.7
20260502015651 53 213 0.0 0.0 0.00 0.39 0.41 87 1013.7
20260502015150 53 327 0.0 0.0 0.00 0.39 0.41 87 1013.7
20260502014649 53 49 0.0 0.0 0.00 0.39 0.41 87 1013.7
20260502014148 53 0 0.0 0.0 0.00 0.39 0.41 86 1013.5
20260502013648 53 0 0.0 0.0 0.00 0.39 0.41 85 1013.6
20260502013147 53 0 0.0 0.0 0.00 0.39 0.41 85 1013.7
20260502012646 53 178 0.0 0.0 0.00 0.39 0.41 85 1013.7
20260502012145 54 333 0.0 0.0 0.00 0.39 0.41 85 1013.7
20260502011644 54 321 0.0 1.0 0.00 0.39 0.41 85 1013.5
20260502011144 54 159 0.0 0.0 0.00 0.39 0.41 84 1013.2
20260502010643 54 130 1.0 1.0 0.00 0.39 0.41 84 1013.2
20260502010142 54 92 0.0 1.0 0.00 0.39 0.41 84 1013.1
20260502005641 54 94 0.0 1.0 0.00 0.39 0.41 84 1013.2
20260502005140 54 340 0.0 0.0 0.00 0.39 0.41 84 1013.4
20260502004640 54 15 0.0 1.0 0.00 0.39 0.41 84 1013.2
20260502004139 54 332 0.0 0.0 0.00 0.39 0.41 84 1012.9
20260502003638 54 126 0.0 0.0 0.00 0.39 0.41 84 1012.9
20260502003137 54 162 0.0 0.0 0.00 0.39 0.41 84 1012.9
20260502002636 54 202 0.0 1.0 0.00 0.39 0.41 83 1013.0
20260502002135 54 336 0.0 0.0 0.00 0.39 0.41 84 1012.9
20260502001634 54 0 0.0 0.0 0.00 0.39 0.41 85 1013.0
20260502001133 54 3 0.0 0.0 0.00 0.39 0.41 84 1012.9
20260502000632 55 0 0.0 1.0 0.00 0.39 0.41 84 1012.9
20260502000131 55 0 0.0 0.0 0.00 0.39 0.41 82 1013.0
20260501235631 55 88 0.0 0.0 0.00 0.39 0.41 82 1013.0
20260501235130 55 84 0.0 0.0 0.00 0.39 0.41 81 1013.0
20260501234629 55 104 0.0 1.0 0.00 0.39 0.41 81 1013.0
20260501234128 55 241 0.0 0.0 0.00 0.39 0.41 80 1013.0
20260501233627 55 134 1.0 1.0 0.00 0.39 0.41 80 1012.9
20260501233126 55 95 1.0 1.0 0.00 0.39 0.41 82 1012.9
20260501232625 55 79 1.0 1.0 0.00 0.39 0.41 82 1012.9
20260501232125 55 112 1.0 1.0 0.00 0.39 0.41 82 1012.9
20260501231624 55 160 1.0 1.0 0.00 0.39 0.41 81 1013.1
20260501231123 55 133 1.0 1.0 0.00 0.39 0.41 81 1013.1
20260501230622 55 96 1.0 1.0 0.00 0.39 0.41 80 1013.2
20260501230121 55 138 1.0 1.0 0.00 0.39 0.41 79 1013.1
20260501225620 55 91 0.0 1.0 0.00 0.39 0.41 80 1013.1
20260501225119 55 82 1.0 1.0 0.00 0.39 0.41 79 1013.1
20260501224618 55 114 0.0 1.0 0.00 0.39 0.41 78 1013.2
20260501224117 55 158 0.0 1.0 0.00 0.39 0.41 77 1013.3
20260501223617 55 114 1.0 1.0 0.00 0.39 0.41 78 1013.4
20260501223116 55 95 0.0 1.0 0.00 0.39 0.41 78 1013.3
20260501222615 55 167 0.0 1.0 0.00 0.39 0.41 80 1013.3
20260501222114 55 102 1.0 1.0 0.00 0.39 0.41 79 1013.4
20260501221613 55 72 0.0 1.0 0.00 0.39 0.41 80 1013.5
20260501221113 54 89 0.0 1.0 0.00 0.39 0.41 81 1013.5
20260501220612 54 114 1.0 1.0 0.00 0.39 0.41 80 1013.5
20260501220111 54 88 1.0 1.0 0.00 0.39 0.41 82 1013.6
20260501215610 54 100 0.0 1.0 0.00 0.39 0.41 80 1013.7
20260501215109 54 209 0.0 1.0 0.00 0.39 0.41 80 1013.8
20260501214609 54 114 0.0 1.0 0.00 0.39 0.41 80 1013.7
20260501214108 54 79 0.0 1.0 0.00 0.39 0.41 79 1013.7
20260501213607 54 101 0.0 1.0 0.00 0.39 0.41 78 1013.7
20260501213106 54 214 0.0 1.0 0.00 0.39 0.41 78 1013.7
20260501212605 54 220 0.0 1.0 0.00 0.39 0.41 78 1013.8
20260501212105 54 112 0.0 0.0 0.05 0.39 0.41 77 1013.9
20260501211604 54 93 0.0 1.0 0.05 0.39 0.41 77 1013.9
20260501211103 54 128 0.0 1.0 0.05 0.39 0.41 76 1013.9